User: anonymous   Login
Location: Montr�al
(45.5000°N, 73.5830°W)
Time: 23:23:02
(UTC-04:00)
Language:

Cosmos 1470 Rocket - Orbit

View from above orbital plane
View from above orbital plane
View from above satellite
View from above satellite

Ground track
Ground track

The orbit data is extracted from the following two-line orbital elements,

1 14148U 83061B   15215.90842036  .00000218  00000-0  23740-4 0  9993
2 14148 082.5187 189.4713 0023169 066.3987 352.1450 14.83042488733560
Epoch (UTC): 03 August 2015 21:48:07
Eccentricity: 0.0023169
inclination: 82.5187°
perigee height: 603 km
apogee height: 636 km
right ascension of ascending node: 189.4713°
argument of perigee: 66.3987°
revolutions per day: 14.83042488
mean anomaly at epoch: 352.1450°
orbit number at epoch: 73356

The dashed part of the orbit path shows where the satellite is in the earth's shadow,  

DLR